Tracking 30701 objects as of 14-Jun-2025
HD Live streaming from Space Station
objects crossing your sky now

STARLINK-5041

Track STARLINK-5041 now!
10-day predictions
STARLINK-5041 is classified as:


NORAD ID: 53891
Int'l Code: 2022-119F
Perigee: 546.1 km
Apogee: 547.7 km
Inclination: 53.2 °
Period: 95.4 minutes
Semi major axis: 6917 km
RCS: Unknown
Launch date: September 24, 2022
Source: United States (US)
Launch site: AIR FORCE EASTERN TEST RANGE (AFETR)
Your satellite tracking list
Your tracking list is empty




NASA's NSSDC Master Catalog

Two Line Element Set (TLE):
1 53891U 22119F   25165.48426175  .00001399  00000-0  10600-3 0  9999
2 53891  53.2173  88.2132 0001114  93.0121 267.0999 15.08837449151194
Source of the keplerian elements: AFSPC